FW8822 Weather Reports


Display with metric or nautical units.
time (UTC)temp
F
wind
direction
speed
MPH
gust
MPH
rain 1hr
in
rain 24hr
in
rain mn
in
humidity
%
barometer
mb
20260505023059 74 0 0.0 1.0 0.00 0.00 0.00 46 1009.0
20260505021602 74 249 0.0 3.0 0.00 0.00 0.00 46 1008.8
20260505020104 75 255 0.0 2.0 0.00 0.00 0.00 49 1008.9
20260505014601 75 0 1.0 2.0 0.00 0.00 0.00 46 1008.8
20260505013105 77 278 1.0 5.0 0.00 0.00 0.00 48 1008.8
20260505011605 80 268 0.0 4.0 0.00 0.00 0.00 43 1008.9
20260505010114 80 208 1.0 4.0 0.00 0.00 0.00 41 1009.0
20260505004558 79 234 1.0 8.0 0.00 0.00 0.00 38 1008.9
20260505003100 79 189 4.0 9.0 0.00 0.00 0.00 38 1008.8
20260505001604 80 203 3.0 6.0 0.00 0.00 0.00 41 1008.9
20260504234558 79 219 1.0 5.0 0.00 0.00 0.00 39 1009.0
20260504233108 79 200 3.0 8.0 0.00 0.00 0.00 40 1008.9
20260504231604 79 92 1.0 6.0 0.00 0.00 0.00 42 1009.0
20260504230058 79 222 2.0 9.0 0.00 0.00 0.00 41 1009.3
20260504224558 78 239 2.0 8.0 0.00 0.00 0.00 43 1009.4
20260504223056 79 197 2.0 6.0 0.00 0.00 0.00 40 1009.3
20260504221558 78 196 2.0 7.0 0.00 0.00 0.00 42 1009.5
20260504220056 78 233 2.0 8.0 0.00 0.00 0.00 41 1009.4
20260504214558 78 198 1.0 7.0 0.00 0.00 0.00 43 1009.9
20260504213102 78 215 1.0 9.0 0.00 0.00 0.00 40 1009.8
20260504211556 78 183 2.0 9.0 0.00 0.00 0.00 42 1009.9
20260504210108 77 211 4.0 10.0 0.00 0.00 0.00 44 1010.0
20260504204607 76 199 3.0 11.0 0.00 0.00 0.00 43 1010.0
20260504203105 76 262 1.0 8.0 0.00 0.00 0.00 41 1009.9
20260504201551 76 157 2.0 6.0 0.00 0.00 0.00 42 1010.0
20260504200053 75 145 2.0 10.0 0.00 0.00 0.00 47 1009.9
20260504194602 75 85 3.0 9.0 0.00 0.00 0.00 51 1009.9
20260504193057 74 248 1.0 4.0 0.00 0.00 0.00 55 1010.1
20260504191555 73 265 2.0 6.0 0.00 0.00 0.00 56 1010.3
20260504190121 71 295 2.0 6.0 0.00 0.00 0.00 61 1010.4
20260504184556 71 272 2.0 5.0 0.00 0.00 0.00 59 1010.4
20260504183104 71 260 1.0 5.0 0.00 0.00 0.00 58 1010.4
20260504181555 71 270 1.0 4.0 0.00 0.00 0.00 52 1010.5
20260504180054 69 272 1.0 3.0 0.00 0.00 0.00 60 1010.6
20260504174559 68 259 2.0 5.0 0.00 0.00 0.00 59 1010.6
20260504173058 67 276 2.0 4.0 0.00 0.00 0.00 63 1010.5
20260504171553 66 282 1.0 5.0 0.00 0.00 0.00 66 1010.5
20260504130110 50 0 0.0 0.0 0.00 0.00 0.00 81 1009.1
20260504081601 55 0 0.0 0.0 0.00 0.00 0.00 66 1009.0
20260504060120 59 240 0.0 0.0 0.00 0.00 0.00 60 1009.1
20260504050117 61 0 0.0 0.0 0.00 0.00 0.00 56 1009.0
20260504044553 62 0 0.0 0.0 0.00 0.00 0.00 63 1009.0
20260504043109 62 0 0.0 0.0 0.00 0.00 0.00 62 1009.0
20260504041555 63 0 0.0 0.0 0.00 0.00 0.00 61 1008.9
20260504040108 65 0 0.0 1.0 0.00 0.00 0.00 57 1009.0
20260504034559 66 0 0.0 0.0 0.00 0.00 0.00 58 1008.9
20260504033059 67 0 0.0 1.0 0.00 0.00 0.00 58 1008.8
20260504031604 68 0 0.0 0.0 0.00 0.00 0.00 50 1008.8
20260504030056 71 0 0.0 0.0 0.00 0.00 0.00 45 1008.8
20260504024557 75 0 0.0 1.0 0.00 0.00 0.00 42 1008.8